Temperature
21 20 20 20 20 19 20 20 20 20 19 19 19 19 19 19 19 19 19 19 19 19 19 19 19 19 19 19 19 19 19 19 18 18 19 19 18 18 18 18 18 18 18
21 20 20 20 20 20 20 20 20 20 19 19 20 19 19 19 19 19 19 19 19 19 19 19 19 19 19 19 19 19 19 19 19 18 18 18 18 18 18 18 18 18 18
21 20 20 20 20 20 20 20 20 20 19 19 19 19 19 19 19 19 19 19 19 19 19 19 19 19 19 19 19 18 19 19 19 18 18 18 18 18 18 18 18 18 18
20 20 20 20 20 20 20 20 19 19 19 19 19 19 19 19 19 19 19 19 19 19 19 19 19 19 19 19 18 18 18 18 18 18 18 18 18 18 18 18 18 18 18
20 20 20 20 20 20 19 19 19 19 19 19 19 19 19 19 19 19 19 19 19 19 19 19 19 19 19 19 18 18 18 18 18 18 18 18 18 18 18 18 18 18 18
20 20 20 20 20 19 19 19 19 19 19 19 19 19 19 19 19 19 19 19 19 19 19 19 19 19 19 19 19 18 18 18 18 18 18 18 18 18 18 18 18 18 18
20 20 20 20 19 19 19 19 19 19 19 19 19 19 19 19 19 19 19 19 19 19 19 19 19 19 18 18 18 18 18 19 18 18 18 18 18 18 18 18 18 18 18
20 20 20 20 19 19 19 19 19 19 19 19 19 19 19 19 19 19 19 19 19 19 18 18 18 18 18 18 18 19 19 18 18 18 18 18 18 18 18 18 18 18 18
20 20 20 20 20 19 19 19 19 19 19 19 19 19 19 19 19 19 19 19 19 19 18 18 18 18 18 18 18 18 18 18 18 18 18 18 18 18 18 18 18 18 18
20 20 20 20 19 19 19 19 19 19 19 19 19 19 19 19 19 19 19 19 19 19 18 18 18 18 18 18 18 18 18 18 18 18 18 18 18 18 18 18 18 18 18
20 20 20 20 19 19 19 19 19 19 19 19 19 19 19 19 19 19 19 19 18 18 18 18 18 18 18 18 18 18 18 18 18 18 18 18 18 18 18 18 18 18 18
20 20 20 20 20 19 19 19 19 19 19 19 19 19 19 19 19 19 19 18 18 18 18 18 18 18 18 18 18 18 18 18 18 18 18 18 18 18 18 18 18 18 18
20 20 20 20 20 20 19 19 19 19 19 19 19 19 19 19 19 19 18 18 18 18 18 18 18 18 18 18 18 18 18 18 18 18 18 18 18 18 18 18 18 18 18
20 20 20 20 20 19 19 19 19 19 19 19 19 19 19 19 19 19 18 18 18 18 18 18 18 18 18 18 18 18 18 18 18 18 18 18 18 18 18 18 18 18 18
20 20 20 20 19 19 19 19 19 19 19 19 19 19 19 19 19 18 18 18 18 18 18 18 18 18 18 18 18 18 18 18 18 18 18 18 18 18 18 18 18 18 18
20 20 20 20 19 19 19 19 19 19 19 19 19 19 19 18 18 18 18 18 18 18 18 18 18 18 18 18 18 18 18 18 18 18 18 18 18 18 18 18 18 18 18
20 20 20 20 19 19 19 19 19 19 19 19 19 18 18 18 18 18 18 18 18 18 18 18 18 18 18 18 18 18 18 18 18 18 18 18 18 18 18 18 18 18 18
20 20 20 20 20 19 19 19 19 19 19 19 18 18 18 18 18 18 18 18 18 18 18 18 18 18 18 18 18 18 18 18 18 18 18 18 18 18 18 18 18 18 18
20 20 20 20 20 19 19 19 19 19 19 19 18 18 18 18 18 18 18 18 18 18 18 18 18 18 18 18 18 17 17 18 18 18 18 18 18 18 18 18 18 18 17
20 20 20 20 20 19 19 19 19 19 19 18 18 18 18 18 18 18 18 18 18 18 18 18 18 18 18 18 18 17 17 17 17 17 17 18 17 17 18 17 17 17 17
21 20 20 20 20 20 19 19 19 19 18 18 18 18 18 18 18 18 18 17 17 18 18 18 18 18 17 18 18 17 17 17 17 17 17 17 17 17 17 17 17 17 17
21 20 20 20 20 20 19 19 19 19 18 18 18 18 18 18 18 18 18 17 17 17 17 17 17 17 17 17 17 17 17 17 17 17 17 17 17 17 17 17 17 17 17
21 21 20 20 20 20 19 19 19 19 18 18 18 18 18 18 18 17 17 17 17 17 17 17 17 17 17 17 17 17 17 17 17 17 17 17 17 17 17 17 17 17 17
21 21 20 20 20 20 19 19 19 19 18 18 18 18 17 17 17 17 17 17 17 17 17 17 17 17 17 17 17 17 17 17 17 17 17 17 17 17 17 17 17 16 16
21 20 20 20 20 20 19 19 19 19 18 18 18 18 17 17 17 17 17 17 17 17 17 17 17 17 17 17 17 17 17 17 17 17 16 16 17 17 17 16 16 16 16
21 21 20 20 20 19 19 19 19 19 18 18 18 18 17 17 17 17 17 17 17 17 17 16 16 16 17 17 17 17 17 17 17 16 16 16 16 16 16 16 16 16 16
Wind_Speed
2 3 7 7 7 7 7 7 8 8 8 8 8 9 10 10 10 10 10 10 11 11 10 10 9 11 12 13 14 14 13 13 12 12 12 12 13 13 13 12 11 10 11
3 4 7 6 6 6 7 7 7 7 7 7 8 9 10 10 10 10 10 10 10 10 10 10 9 10 12 12 13 13 13 13 12 12 12 11 12 12 12 12 11 9 11
5 4 5 6 6 6 7 6 7 7 7 8 8 10 10 10 10 9 9 9 9 9 10 10 9 10 11 11 12 13 13 12 12 12 11 9 10 11 11 11 11 11 11
5 4 4 5 5 6 6 6 6 7 7 7 8 9 9 9 9 9 9 9 9 9 9 9 10 10 10 11 12 12 12 11 11 11 8 7 8 10 10 11 11 10 10
4 3 4 5 6 6 6 6 6 6 6 7 8 8 8 8 8 8 8 8 8 8 9 9 9 9 9 10 11 11 10 10 10 9 7 7 7 9 10 11 11 10 11
3 2 3 5 5 6 6 6 6 6 6 7 7 7 7 6 6 7 7 7 7 7 8 8 8 9 9 9 9 9 9 9 8 7 7 7 8 10 10 10 10 11 11
2 1 1 4 4 6 6 6 5 6 6 7 7 7 7 6 6 5 6 6 6 7 7 7 7 8 8 8 8 8 9 9 7 6 6 7 8 9 9 9 10 10 11
3 1 1 3 5 6 6 6 5 6 6 7 7 7 6 5 5 4 5 5 5 6 6 7 6 7 7 7 7 7 7 7 6 6 6 7 8 9 9 9 9 10 10
3 2 2 2 3 5 6 6 6 6 7 7 6 6 5 5 4 4 4 4 4 5 5 5 6 6 7 7 7 6 6 7 5 5 6 7 8 9 9 9 10 10 10
4 3 3 3 3 3 3 5 5 5 6 6 5 5 5 4 3 3 3 4 3 4 4 4 4 5 5 6 6 6 6 5 4 5 5 6 9 10 10 10 10 10 10
3 3 3 3 3 3 3 3 4 4 4 4 4 4 3 2 2 2 3 3 3 3 3 3 3 3 4 5 6 6 5 3 4 4 4 7 9 10 10 10 10 10 11
1 2 3 3 3 3 3 3 3 4 4 4 3 3 3 3 2 2 2 2 2 2 2 2 2 3 3 3 3 4 3 4 4 4 5 7 9 10 10 9 10 10 10
1 2 2 3 3 3 3 3 2 3 3 4 4 4 4 3 2 2 2 1 1 2 2 2 2 2 2 2 2 2 3 3 3 4 5 7 8 9 10 10 10 10 10
2 2 3 3 4 4 3 3 2 2 2 2 3 4 3 2 3 2 2 2 2 2 2 2 2 2 2 2 3 3 3 3 3 3 4 6 7 8 9 9 10 10 10
3 2 2 3 4 4 3 2 3 2 2 2 2 3 3 2 3 3 2 2 3 3 2 2 2 2 2 2 2 3 3 3 3 3 3 6 6 6 8 8 9 10 10
3 2 3 3 4 4 3 3 2 2 2 2 2 2 3 3 2 3 3 3 3 3 2 2 2 2 2 2 2 2 2 2 3 3 3 4 5 5 5 6 7 8 9
3 3 3 4 4 4 3 3 3 3 3 3 2 2 3 3 3 3 3 3 2 3 3 3 3 3 2 2 2 2 2 2 3 3 3 3 3 5 5 5 6 7 8
3 3 3 3 4 4 3 3 3 3 3 3 2 3 3 3 3 3 2 2 2 3 3 3 3 3 3 2 2 2 2 2 3 3 3 3 3 3 4 5 5 5 6
4 4 4 3 3 4 4 3 3 4 4 3 3 3 3 3 4 3 2 2 2 3 3 3 3 2 2 3 2 2 2 2 3 3 3 3 3 2 3 4 5 5 5
4 4 4 3 3 3 3 3 3 4 3 3 3 3 3 3 4 3 3 3 3 3 3 3 3 3 2 2 3 3 3 3 3 3 2 2 2 2 3 3 3 3 4
4 4 4 4 3 3 2 2 2 2 2 2 3 4 4 3 3 3 3 3 3 3 2 3 2 4 3 3 3 3 3 4 3 2 2 2 2 2 2 2 2 2 2
5 4 4 4 4 3 2 2 2 2 2 2 2 4 4 3 3 3 3 2 3 2 3 3 3 3 2 3 2 2 2 3 3 3 2 2 1 2 1 1 2 2 1
5 5 5 4 3 3 3 3 4 3 3 3 3 3 3 4 4 3 3 2 2 2 2 2 2 3 2 2 2 2 2 0 1 1 2 2 1 2 1 2 2 1 1
6 5 5 4 4 3 4 4 5 4 2 1 1 1 2 3 3 3 3 3 2 2 2 1 2 2 2 1 1 2 1 2 1 1 2 2 3 2 2 1 1 1 1
6 5 5 5 4 3 4 5 5 3 2 1 2 2 2 2 3 3 3 2 2 2 2 2 2 2 1 1 1 1 2 2 2 2 1 2 2 2 1 1 1 1 1
5 5 4 5 4 3 4 4 5 5 3 3 2 1 1 1 2 2 2 2 2 1 1 1 1 1 1 1 1 1 1 1 1 2 1 1 1 1 2 1 1 1 0
Wind_Direction
191 176 164 154 153 150 145 145 147 147 146 145 146 146 143 145 149 151 152 154 155 157 158 159 161 158 161 161 160 160 163 162 163 163 163 162 161 161 161 157 154 150 152
155 160 157 154 152 149 144 142 143 145 145 148 150 148 146 149 152 152 154 154 155 159 161 161 160 155 157 159 159 160 163 163 163 163 164 164 165 165 165 162 160 156 159
130 141 146 150 153 151 147 144 145 146 145 146 148 147 148 149 151 154 157 158 160 161 163 162 161 160 161 162 162 164 164 165 166 168 165 163 164 167 167 165 162 162 162
124 127 143 152 155 147 144 143 145 141 138 138 141 146 147 147 150 157 159 162 164 165 164 163 163 163 164 164 164 165 166 168 170 169 165 163 167 172 170 169 169 170 169
114 125 156 156 157 149 149 145 140 137 138 138 138 142 144 146 153 160 161 162 163 164 163 163 165 168 167 168 168 169 169 169 169 168 161 165 169 174 174 176 175 176 172
107 126 166 155 156 156 155 148 144 143 142 143 141 139 140 145 148 155 162 161 163 165 165 166 171 175 172 172 173 173 172 173 170 162 164 172 176 179 181 181 179 177 172
100 98 168 145 153 158 156 150 145 137 135 134 134 134 137 141 145 149 156 160 165 167 167 169 178 178 175 175 174 174 175 175 165 158 169 175 178 180 183 183 182 180 175
98 58 33 125 139 146 147 142 136 128 128 131 133 135 136 138 138 145 152 155 162 170 173 173 177 177 180 179 173 170 170 172 170 169 169 174 178 183 185 185 180 178 174
71 50 26 72 124 140 142 136 127 123 123 127 133 135 137 138 137 137 138 140 157 168 169 169 179 183 182 180 175 170 171 177 161 161 175 176 181 182 183 183 181 177 175
56 43 36 50 67 93 117 122 119 120 119 118 120 123 128 129 124 135 139 137 149 160 170 176 181 185 185 182 176 170 173 178 165 170 179 182 183 183 184 182 182 180 179
52 31 32 43 53 67 85 100 94 107 106 98 100 99 89 70 81 118 129 132 141 155 164 172 175 173 177 179 177 178 182 161 165 176 183 184 183 185 188 185 183 183 182
62 28 34 50 60 74 89 70 70 87 84 79 74 65 57 48 53 93 106 120 133 139 151 160 155 151 155 146 167 186 164 161 172 182 187 186 188 192 194 192 187 186 186
137 69 54 70 73 85 73 73 71 77 76 73 66 60 58 47 37 47 56 46 70 99 105 107 109 120 131 142 151 153 157 163 171 178 181 184 191 197 197 194 191 189 191
96 74 76 81 83 81 82 77 76 78 76 72 65 63 63 47 36 55 70 59 64 81 94 99 113 117 124 134 148 156 160 166 170 170 175 185 191 197 199 197 196 191 193
102 90 85 90 91 88 83 78 78 73 78 73 64 60 71 62 47 53 64 66 59 63 74 82 109 122 130 132 144 153 169 177 172 163 174 186 187 191 194 197 196 191 190
127 116 94 92 97 95 94 90 78 76 82 75 65 59 76 79 69 59 54 50 47 51 58 78 94 116 126 134 146 151 159 167 162 152 159 170 173 179 185 193 192 185 186
138 118 111 114 100 99 99 98 85 78 78 65 53 57 78 90 82 71 60 47 35 49 55 65 67 89 99 104 110 125 135 142 149 143 140 141 153 163 167 174 176 177 184
122 112 109 117 109 106 98 87 72 71 73 60 50 57 67 90 100 92 75 49 39 60 52 52 66 77 78 79 87 83 84 105 124 127 123 123 127 143 151 156 160 169 178
140 128 114 108 113 111 97 83 72 68 63 55 56 56 58 73 87 94 75 55 60 59 48 56 63 80 83 73 78 77 72 90 111 120 116 111 117 125 140 151 155 162 173
138 129 124 114 106 103 92 80 71 62 51 50 52 51 61 73 82 87 70 52 58 62 52 48 57 60 73 74 79 65 59 73 87 98 108 105 109 120 124 130 132 157 166
132 132 137 132 124 114 102 99 89 71 56 50 50 49 56 65 78 80 66 54 56 63 58 56 68 61 51 57 75 59 51 63 70 73 81 92 95 97 102 120 135 140 160
157 153 147 145 140 135 130 125 117 109 88 70 43 45 50 58 68 87 79 73 67 66 54 53 66 70 57 45 71 87 47 34 41 52 73 96 85 74 88 100 123 138 157
164 166 161 155 146 139 127 108 95 76 59 52 43 30 27 50 63 71 66 74 69 77 70 55 72 88 85 44 50 91 106 125 8 29 56 60 61 72 60 66 80 97 125
170 161 150 149 144 139 131 127 129 125 118 117 91 52 29 47 56 63 65 66 67 69 73 63 68 83 98 81 41 52 90 128 116 46 36 47 49 53 39 56 66 93 119
155 154 148 141 134 127 131 138 129 119 121 104 80 61 38 31 45 54 62 63 62 59 60 58 62 81 96 105 84 73 74 64 80 118 82 30 35 28 28 43 64 67 92
142 137 139 136 133 131 131 133 139 142 137 121 103 80 36 23 26 36 61 62 61 58 50 50 62 74 94 104 93 91 124 130 133 131 139 87 19 351 8 26 46 34 68
Height
1478 1478 1480 1480 1481 1482 1482 1483 1484 1484 1485 1486 1487 1487 1489 1491 1492 1494 1495 1496 1498 1499 1500 1500 1499 1497 1500 1505 1509 1512 1514 1516 1519 1520 1522 1524 1525 1527 1528 1530 1531 1533 1534
1478 1479 1480 1481 1481 1482 1482 1483 1484 1485 1485 1485 1486 1487 1489 1491 1493 1494 1496 1497 1498 1499 1500 1501 1501 1501 1503 1507 1510 1512 1514 1516 1519 1520 1522 1524 1526 1527 1528 1530 1531 1533 1534
1479 1479 1480 1481 1481 1481 1482 1484 1485 1485 1485 1485 1486 1488 1490 1492 1493 1495 1496 1498 1499 1500 1501 1502 1503 1504 1506 1508 1510 1513 1514 1516 1518 1520 1522 1523 1525 1527 1528 1530 1531 1533 1534
1480 1480 1481 1481 1482 1482 1483 1484 1485 1486 1486 1487 1487 1489 1491 1493 1494 1496 1497 1498 1500 1501 1502 1503 1504 1506 1507 1509 1511 1513 1515 1516 1518 1520 1522 1523 1525 1527 1528 1530 1531 1533 1534
1481 1481 1481 1482 1482 1483 1484 1485 1486 1486 1486 1487 1488 1490 1492 1493 1495 1496 1498 1499 1500 1501 1502 1503 1505 1506 1508 1510 1511 1513 1515 1516 1518 1520 1521 1523 1525 1526 1528 1530 1531 1532 1533
1483 1482 1482 1481 1482 1482 1484 1485 1486 1486 1486 1487 1489 1491 1493 1494 1496 1497 1498 1499 1500 1502 1503 1504 1505 1507 1508 1510 1511 1513 1514 1516 1518 1519 1521 1523 1524 1526 1527 1529 1530 1531 1532
1484 1483 1482 1481 1480 1481 1484 1486 1487 1487 1487 1488 1490 1492 1494 1495 1497 1498 1499 1500 1501 1502 1503 1504 1505 1507 1508 1510 1511 1512 1514 1516 1517 1519 1521 1522 1524 1525 1527 1528 1529 1530 1531
1485 1484 1483 1481 1480 1481 1484 1487 1488 1489 1489 1490 1492 1494 1495 1497 1498 1498 1499 1500 1501 1502 1503 1504 1505 1507 1508 1509 1510 1511 1513 1515 1517 1518 1520 1521 1523 1525 1526 1527 1528 1529 1530
1487 1486 1485 1484 1483 1485 1487 1489 1490 1491 1491 1492 1493 1495 1496 1497 1498 1499 1499 1500 1501 1502 1503 1504 1505 1506 1507 1508 1509 1510 1512 1514 1516 1517 1519 1520 1522 1523 1525 1526 1527 1529 1530
1489 1489 1488 1487 1487 1488 1489 1491 1492 1493 1493 1494 1495 1496 1497 1498 1498 1499 1499 1500 1501 1501 1502 1503 1504 1505 1506 1507 1508 1509 1511 1513 1515 1516 1517 1519 1520 1522 1524 1525 1526 1528 1529
1491 1491 1490 1490 1490 1491 1492 1493 1494 1495 1495 1496 1497 1497 1498 1498 1498 1499 1499 1500 1500 1501 1502 1502 1503 1503 1504 1506 1507 1508 1510 1512 1513 1514 1516 1517 1519 1520 1522 1524 1525 1527 1528
1493 1492 1492 1492 1492 1493 1494 1495 1496 1497 1497 1498 1498 1499 1499 1499 1498 1498 1499 1500 1500 1501 1501 1501 1502 1502 1503 1504 1506 1507 1509 1510 1511 1512 1514 1516 1517 1519 1520 1522 1523 1525 1527
1495 1494 1494 1494 1494 1495 1496 1497 1498 1499 1499 1500 1500 1500 1500 1499 1498 1497 1498 1499 1499 1500 1500 1500 1501 1501 1502 1503 1504 1506 1507 1509 1510 1511 1512 1514 1515 1517 1518 1520 1521 1523 1525
1497 1496 1496 1496 1496 1497 1498 1499 1500 1501 1501 1501 1502 1502 1501 1499 1498 1497 1498 1499 1499 1499 1499 1500 1500 1500 1501 1502 1503 1504 1506 1507 1508 1509 1511 1512 1514 1515 1517 1518 1520 1521 1523
1499 1499 1499 1499 1499 1500 1500 1501 1502 1503 1503 1503 1503 1503 1503 1501 1500 1499 1499 1500 1500 1500 1499 1499 1499 1499 1499 1500 1502 1503 1504 1506 1507 1508 1509 1511 1512 1514 1515 1517 1518 1520 1522
1500 1500 1501 1501 1501 1502 1502 1503 1504 1504 1505 1505 1505 1505 1504 1503 1502 1501 1501 1501 1501 1500 1499 1499 1498 1497 1498 1499 1500 1502 1503 1504 1505 1506 1508 1510 1511 1513 1514 1516 1518 1520 1522
1502 1502 1502 1503 1503 1504 1504 1505 1505 1506 1506 1506 1506 1506 1506 1505 1504 1504 1503 1503 1502 1501 1500 1499 1498 1498 1498 1499 1500 1502 1503 1503 1504 1505 1507 1509 1511 1513 1514 1516 1517 1519 1521
1503 1504 1504 1505 1505 1506 1506 1507 1507 1508 1508 1508 1508 1508 1507 1507 1506 1505 1505 1504 1504 1503 1502 1501 1500 1499 1500 1500 1501 1502 1502 1503 1503 1505 1507 1509 1511 1513 1515 1516 1518 1519 1521
1505 1505 1505 1506 1507 1507 1508 1508 1509 1509 1509 1509 1509 1509 1509 1508 1508 1507 1507 1506 1505 1504 1503 1502 1502 1501 1501 1501 1502 1502 1503 1503 1504 1506 1508 1510 1512 1513 1515 1517 1518 1520 1521
1506 1507 1507 1508 1508 1509 1509 1510 1510 1510 1510 1511 1511 1511 1510 1510 1509 1509 1508 1507 1507 1506 1505 1504 1503 1503 1503 1502 1503 1504 1504 1505 1506 1508 1509 1511 1512 1514 1515 1517 1518 1520 1521
1507 1508 1508 1508 1509 1509 1510 1510 1510 1511 1511 1511 1511 1512 1511 1511 1511 1510 1509 1509 1508 1507 1507 1506 1505 1504 1504 1504 1505 1505 1506 1506 1507 1509 1510 1511 1513 1514 1515 1517 1518 1519 1520
1507 1508 1509 1509 1510 1510 1511 1511 1512 1512 1512 1512 1512 1512 1512 1512 1511 1511 1510 1509 1509 1508 1508 1507 1507 1506 1506 1506 1506 1506 1507 1509 1509 1510 1511 1512 1513 1514 1515 1517 1518 1519 1520
1506 1507 1509 1510 1510 1511 1512 1512 1513 1513 1513 1513 1513 1513 1513 1512 1512 1512 1511 1511 1510 1510 1509 1509 1508 1508 1508 1508 1508 1509 1508 1509 1510 1512 1512 1513 1514 1514 1515 1517 1518 1519 1519
1505 1507 1508 1510 1511 1512 1512 1513 1513 1513 1513 1513 1514 1514 1514 1513 1513 1512 1512 1512 1511 1511 1510 1510 1510 1509 1509 1509 1510 1510 1511 1510 1511 1512 1513 1513 1514 1514 1515 1516 1517 1518 1519
1504 1506 1508 1510 1511 1512 1513 1513 1513 1514 1514 1514 1514 1514 1514 1514 1514 1513 1513 1512 1512 1512 1511 1511 1511 1510 1510 1510 1510 1511 1511 1511 1511 1512 1513 1513 1514 1514 1515 1516 1517 1517 1518
1503 1506 1508 1510 1511 1512 1513 1513 1513 1514 1514 1514 1514 1514 1514 1514 1514 1513 1513 1513 1512 1512 1512 1512 1511 1511 1511 1511 1511 1511 1511 1511 1512 1512 1512 1513 1513 1514 1514 1515 1516 1517 1517